Wind_Speed
46 47 48 42 37 37 39 42 43 43 42 44 44 45 46 46 43 39 40 45 47 51 51 48 50 49 43 41 39 36 33 31 31 33 33 32 32 31 30 31 34 37 37 36 37 39 39 38 37 37 36 36 35 34 35 35 36 36 37 39 40 41 42 43 45 46 47 47 48 48 48 48 48 48 48 48 47 45 44 44 44 43 43 44 44 44
47 50 48 40 37 38 41 43 44 44 44 46 46 47 48 47 46 44 43 46 48 53 52 48 52 51 45 42 40 37 36 32 29 29 29 30 32 32 31 33 36 38 38 38 40 40 39 38 37 36 35 36 36 35 35 36 36 37 38 39 41 42 43 45 46 48 48 49 49 49 49 50 50 49 49 49 48 46 45 45 45 44 44 45 45 45
51 52 46 39 38 40 42 43 44 46 47 47 48 50 52 48 48 49 46 47 50 53 53 50 54 52 45 43 40 37 36 33 29 28 28 30 33 33 33 35 38 39 39 40 41 40 39 37 36 35 36 36 37 37 37 37 37 37 39 40 42 43 44 46 48 48 49 50 50 50 50 51 50 50 50 50 49 48 47 47 46 46 46 47 47 47
55 53 47 42 42 43 45 44 46 47 47 48 49 52 53 49 49 52 49 50 52 53 53 53 56 53 45 42 38 35 35 33 31 30 30 31 32 33 34 36 38 39 39 39 39 38 37 35 35 35 36 37 38 39 38 38 38 38 40 41 43 44 45 47 48 48 49 50 50 51 51 51 50 50 51 51 51 50 50 49 49 49 49 49 49 49
57 55 52 49 46 45 46 47 49 49 48 50 52 53 53 50 51 53 52 54 56 54 54 56 59 55 45 40 36 32 32 32 33 33 31 32 31 31 33 36 40 41 39 38 37 36 35 35 35 35 37 37 37 38 38 38 39 40 42 43 44 45 46 48 49 49 50 50 51 51 51 50 51 52 52 52 52 52 51 51 52 52 51 51 51 50
57 56 54 52 49 48 49 50 51 50 49 53 55 54 52 51 52 54 54 56 59 58 56 57 62 58 46 41 36 33 34 33 33 33 32 34 34 33 34 37 40 42 40 38 36 35 35 35 35 35 36 37 36 37 39 41 42 43 45 45 46 46 47 49 50 50 51 51 52 51 51 51 52 53 53 53 53 52 52 53 53 53 53 52 52 51
57 56 54 52 51 50 51 53 51 49 51 56 57 54 52 52 53 55 55 57 60 60 59 59 63 60 49 43 41 40 40 38 35 34 34 36 36 35 36 38 41 41 38 35 32 31 32 32 33 34 35 36 37 39 42 45 46 48 48 48 47 48 49 50 51 52 52 52 52 52 52 53 54 54 54 54 53 53 53 53 54 54 53 53 53 52
53 54 54 52 52 53 55 54 50 48 53 58 57 55 54 53 54 56 56 58 60 61 62 62 63 61 53 46 47 47 46 43 39 37 35 36 37 38 39 40 40 38 35 32 29 29 30 31 32 33 35 37 40 43 46 48 50 51 50 49 48 49 50 50 51 52 52 53 53 53 54 55 55 55 55 56 55 54 55 54 54 54 54 54 53 53
52 54 54 53 54 55 55 54 51 50 53 57 57 56 55 55 56 57 57 58 60 62 66 64 61 62 58 54 55 55 51 45 41 38 37 37 38 39 40 40 38 36 33 31 29 29 31 32 33 35 37 40 44 46 48 49 51 51 50 49 49 49 50 50 50 51 52 53 54 55 55 55 55 56 57 57 57 56 56 55 54 53 53 53 53 52
52 53 53 54 56 56 55 55 54 53 54 56 57 57 56 56 56 57 58 58 61 65 67 64 61 62 61 58 57 56 51 47 44 42 41 41 39 38 40 40 39 37 34 32 31 32 33 35 36 37 39 42 44 45 46 47 48 49 48 49 49 49 49 50 50 50 52 53 55 56 56 56 56 57 57 57 57 56 56 54 52 51 51 52 52 52
50 51 53 54 53 53 54 55 55 56 56 56 56 56 57 57 56 57 59 59 63 68 66 62 60 62 64 60 57 55 53 51 49 48 47 45 41 37 39 40 38 38 37 34 33 34 36 37 37 38 39 41 42 43 44 45 47 48 48 49 49 49 50 50 50 50 51 52 54 57 58 57 57 57 56 55 54 54 53 51 49 48 49 49 50 51
50 52 53 52 51 52 52 53 54 56 56 55 55 56 56 56 56 58 60 61 66 68 64 61 59 61 64 60 57 57 55 52 51 51 50 49 43 37 38 39 36 36 40 40 37 37 38 39 39 39 39 40 41 42 44 45 47 49 50 50 49 48 49 49 49 49 50 50 52 57 59 57 56 55 54 53 51 51 49 47 47 47 48 48 49 50
53 53 52 51 51 50 49 51 53 53 53 52 53 54 53 55 57 61 63 64 67 66 62 60 61 63 64 59 56 55 53 52 53 53 52 50 46 39 37 39 37 36 40 42 43 44 43 42 41 41 41 41 43 44 46 47 48 50 51 50 49 48 48 48 47 46 47 48 50 54 56 54 53 52 51 51 50 49 48 47 48 48 48 49 49 50
57 56 54 53 50 47 47 48 49 48 49 51 52 52 52 55 59 61 63 65 66 65 61 60 63 65 62 58 56 55 54 54 54 55 55 54 49 43 40 42 42 40 40 40 43 46 47 45 43 43 43 43 44 46 47 48 49 51 51 51 50 49 49 49 48 45 45 46 47 48 49 49 49 49 49 50 50 50 49 49 49 49 49 49 50 51
61 59 56 53 50 49 49 48 46 47 49 52 53 51 53 57 57 58 60 63 65 64 62 63 67 65 61 60 60 60 58 56 55 55 56 57 54 47 44 44 42 41 39 38 39 42 46 48 47 45 45 45 47 49 50 50 51 52 52 52 51 51 51 51 50 47 46 45 44 42 43 44 46 48 48 49 49 49 50 50 50 50 50 51 51 52
60 60 57 56 55 52 52 49 48 49 51 52 52 54 57 57 54 54 59 61 63 65 64 66 68 66 63 62 61 62 60 58 58 56 55 57 54 47 42 41 40 38 37 36 37 40 45 49 49 48 47 48 50 52 53 53 53 53 53 53 53 54 54 54 51 48 46 45 42 40 40 42 44 46 47 48 48 49 49 50 51 52 52 53 54 55
58 59 55 56 58 55 54 53 51 52 53 54 56 57 56 54 53 57 60 60 61 66 66 66 69 67 63 60 57 58 58 57 57 56 55 54 49 43 39 38 38 37 36 36 37 41 44 47 49 49 50 52 54 55 56 56 56 56 56 55 54 56 56 54 50 46 45 44 42 41 41 42 43 44 46 48 49 50 51 52 54 55 56 56 57 57
53 56 53 54 57 56 57 57 54 53 55 56 56 54 52 54 56 59 62 62 62 68 68 66 69 68 61 56 55 57 58 58 59 58 57 53 48 44 38 35 38 37 35 35 37 40 45 47 48 50 52 54 56 58 59 59 59 59 58 56 55 55 55 52 47 45 45 45 45 45 44 43 43 45 47 50 50 51 53 55 57 58 59 60 60 61
55 59 58 58 60 60 60 60 58 57 57 56 53 51 52 56 58 58 60 61 61 66 68 67 69 66 58 54 55 58 59 60 62 62 62 59 54 51 44 36 37 39 38 39 40 43 47 49 50 52 53 54 56 57 59 60 61 61 60 57 55 54 53 52 48 45 46 47 48 49 48 47 46 47 49 52 53 53 55 57 59 60 62 63 63 63
64 65 64 62 62 63 62 62 61 59 58 58 57 57 58 59 60 60 60 60 60 64 66 66 67 63 57 55 57 59 59 60 62 63 63 62 60 59 53 42 39 41 42 44 46 47 49 52 54 54 55 56 56 57 58 60 61 61 61 58 54 52 52 52 50 48 48 49 51 52 52 52 52 51 52 54 55 56 57 59 60 62 64 65 65 65
66 67 66 63 62 64 64 63 61 60 60 63 64 64 63 62 63 62 63 64 65 67 68 68 68 63 58 59 61 60 59 59 61 61 59 59 59 60 58 52 47 46 46 48 50 51 52 53 56 56 56 56 56 57 57 58 59 59 59 58 55 52 51 51 51 50 52 53 54 55 56 57 57 57 56 57 59 59 60 61 63 64 65 66 66 67
67 67 67 64 62 64 65 63 62 62 64 67 69 69 67 66 65 65 68 70 69 70 71 71 72 68 62 63 63 60 58 60 61 60 57 57 57 57 57 55 52 51 52 54 55 55 54 54 56 56 54 53 53 54 55 56 56 56 55 54 53 52 51 51 51 53 54 55 56 57 58 59 59 59 59 59 60 60 61 62 64 65 66 66 67 68
69 68 68 67 66 66 65 64 65 66 67 69 71 69 67 67 66 68 72 71 69 71 71 71 76 75 66 63 61 59 59 61 61 60 58 58 58 57 56 54 52 52 55 59 60 58 56 56 56 55 51 50 51 52 53 54 53 52 50 49 49 49 49 50 52 53 54 55 57 58 59 60 60 60 59 58 59 60 60 62 64 66 67 67 68 68
69 67 69 70 69 68 66 65 66 66 67 70 70 67 66 67 68 69 71 69 69 72 71 73 79 78 70 64 62 62 62 62 61 60 60 61 61 60 58 55 53 54 56 60 62 62 60 57 56 53 50 49 50 50 51 51 50 49 48 47 47 48 49 50 52 54 56 57 59 61 61 60 60 59 58 58 59 60 61 63 65 67 68 68 69 69
69 68 71 73 74 73 70 66 66 67 68 69 68 65 64 65 66 68 69 70 73 73 71 75 81 77 69 66 65 65 64 63 62 62 63 64 63 61 60 58 56 56 59 63 65 65 63 59 56 54 52 50 49 48 48 48 49 48 47 46 48 50 53 55 56 58 59 60 61 61 61 61 61 60 60 61 62 63 64 65 66 67 68 69 69 69
68 68 69 70 72 71 68 62 58 60 64 66 64 62 61 62 65 68 69 71 75 73 71 75 79 74 68 66 67 66 65 65 64 64 66 66 63 61 61 61 60 60 62 65 66 65 64 61 57 55 53 51 49 48 48 49 49 48 47 49 53 57 58 58 58 58 59 59 59 59 59 61 62 63 64 65 65 65 65 66 67 68 68 69 69 69
65 64 63 64 66 67 66 62 56 54 57 60 59 58 59 61 63 66 70 73 73 72 74 76 77 76 73 69 67 64 62 64 65 65 65 63 62 62 62 63 63 63 64 66 65 63 62 59 56 54 53 51 50 49 49 48 49 50 52 55 58 59 58 57 57 57 57 57 57 58 59 61 63 66 67 67 67 66 67 67 69 69 69 69 69 68
68 66 61 61 65 67 65 63 58 56 58 59 57 56 57 58 59 62 68 70 68 71 78 78 75 77 77 71 69 66 63 64 65 63 61 61 62 62 63 63 63 63 64 64 62 59 56 55 54 53 52 51 50 49 49 50 51 53 56 59 59 57 56 56 57 57 57 57 58 59 61 63 65 67 67 67 67 67 67 68 68 69 70 69 69 69
76 77 71 68 71 71 68 63 58 56 58 58 56 55 54 54 56 60 64 66 67 73 78 75 71 74 74 70 69 66 63 63 63 62 61 62 64 64 64 64 62 61 63 61 56 52 51 51 52 53 53 51 51 51 51 52 54 55 58 59 57 55 56 57 57 57 57 58 60 61 63 65 67 67 68 67 67 66 66 67 67 68 68 68 68 67
78 81 79 78 81 83 80 77 73 69 66 63 59 58 58 59 60 61 63 65 67 72 73 68 67 69 65 60 60 59 57 57 59 60 62 63 64 64 63 62 59 59 58 54 50 48 48 49 50 51 52 52 52 52 53 54 56 58 61 59 56 56 58 57 56 57 58 60 62 63 65 66 66 66 65 64 63 63 63 64 65 65 65 66 66 64
84 84 83 84 89 91 90 87 86 85 85 83 78 74 75 74 68 64 65 66 66 69 68 66 70 70 61 54 55 54 53 53 52 52 55 58 60 59 58 57 55 53 51 50 51 51 51 52 53 54 55 55 55 56 58 60 60 61 60 58 57 58 58 56 56 58 60 61 63 64 64 63 62 61 59 58 58 58 60 62 63 64 64 64 63 62
89 89 88 89 92 96 96 94 94 95 94 92 90 89 88 83 78 76 75 74 72 72 71 73 77 75 65 63 66 65 61 58 53 51 51 50 49 49 51 51 50 49 48 50 54 56 57 59 61 62 63 63 64 64 64 64 63 60 59 59 60 60 57 56 58 60 61 62 62 61 60 59 59 58 57 57 58 60 62 64 65 66 67 67 67 66
81 81 81 82 87 92 92 92 94 92 86 83 86 91 91 89 87 87 85 83 81 80 81 84 84 80 77 78 78 73 66 62 58 57 53 46 42 43 46 49 52 55 58 61 63 64 67 69 70 70 71 71 70 68 66 64 62 60 60 61 61 60 58 58 60 60 61 61 60 59 59 58 59 59 60 61 63 65 67 69 69 69 70 70 70 69
78 78 77 78 81 84 84 83 85 86 85 85 86 88 88 87 87 88 89 90 88 84 86 89 89 85 81 76 70 64 62 63 63 59 53 49 47 46 48 52 59 66 69 70 71 72 73 74 73 73 74 73 71 68 65 63 62 61 62 62 61 59 59 59 60 61 61 61 61 60 60 60 62 63 64 66 68 70 71 70 68 66 66 66 66 67
77 79 79 79 79 80 79 79 83 90 92 90 87 85 85 86 87 91 95 96 94 90 88 88 87 80 70 61 59 60 63 66 64 59 56 57 58 58 59 62 67 73 73 71 71 71 71 72 71 72 73 72 70 67 64 63 62 62 62 62 60 59 60 61 61 62 63 63 64 65 64 65 67 67 68 70 72 71 69 67 63 60 60 63 65 67
77 79 82 84 84 84 85 86 91 95 94 91 89 87 88 88 89 92 96 98 96 92 87 83 79 73 66 64 65 67 69 70 70 68 68 70 70 71 73 73 74 76 74 71 70 70 70 71 71 71 72 71 68 65 64 63 63 64 63 62 61 61 61 61 61 62 64 66 68 69 69 70 70 70 72 72 70 67 64 61 57 56 58 62 66 68
84 85 86 89 90 91 92 93 95 94 92 91 91 91 91 90 89 90 95 98 95 86 81 79 78 75 73 74 75 74 73 75 77 77 76 75 74 75 76 76 75 75 76 75 73 71 71 73 72 70 70 69 66 64 64 64 64 65 65 63 62 62 62 61 61 64 66 68 70 72 72 72 73 74 74 71 67 63 59 56 55 57 61 63 65 67
90 89 88 89 90 89 89 90 91 91 92 92 90 90 91 89 87 87 91 95 91 82 78 78 78 78 78 78 77 75 72 74 78 79 77 76 75 74 74 76 77 78 78 77 73 71 72 73 70 68 67 67 65 65 66 66 66 66 66 65 63 63 62 62 64 66 67 69 70 71 73 74 75 74 71 66 62 60 57 57 61 65 66 66 67 67
87 86 85 85 86 86 86 89 91 93 94 93 90 89 87 84 80 79 84 90 87 79 76 77 77 76 76 75 72 69 69 73 77 79 78 76 75 76 77 77 78 78 75 71 67 66 66 66 65 65 66 67 67 67 68 68 68 69 69 68 67 65 63 62 63 64 65 66 67 68 69 70 70 67 63 60 59 59 60 64 67 68 67 67 68 67
86 86 87 89 90 90 91 94 96 96 96 93 90 87 85 82 78 77 84 91 87 80 78 76 72 69 68 68 68 68 70 73 75 75 75 74 74 74 74 72 71 70 69 66 63 60 61 62 62 64 66 66 67 69 70 71 72 73 73 71 69 66 63 61 62 63 64 66 66 66 66 65 63 60 59 59 60 62 65 67 68 66 66 67 67 66
91 92 94 95 96 95 95 97 97 97 95 92 88 86 84 82 82 84 89 90 84 80 77 69 62 61 62 63 65 67 69 71 71 71 70 71 72 72 70 69 68 67 66 65 62 59 60 62 63 65 66 67 68 70 71 71 72 72 72 70 67 64 61 61 62 63 65 67 67 66 65 63 61 60 60 62 63 65 66 65 64 64 66 67 67 67
94 94 95 94 95 95 94 93 93 94 94 91 88 83 76 73 75 80 83 82 78 74 69 63 59 61 63 65 66 67 68 68 69 70 71 70 69 67 65 62 58 56 56 59 62 64 65 66 67 68 69 69 70 70 71 71 70 69 68 66 62 60 60 62 62 63 65 66 65 64 64 62 61 61 62 63 64 64 62 61 60 61 62 64 66 67
87 90 91 91 91 92 92 90 88 86 82 78 77 73 67 65 68 71 72 71 69 67 65 61 59 60 63 65 65 66 66 65 67 68 68 64 60 56 53 50 48 48 51 54 59 65 68 69 70 70 70 71 69 69 71 71 69 67 64 61 58 58 60 60 60 62 63 64 63 63 63 63 63 63 62 63 63 62 60 58 58 58 60 63 65 65
81 83 87 88 87 87 87 84 78 73 69 65 65 68 68 66 66 68 70 69 66 63 63 61 59 60 62 63 62 62 61 61 62 63 60 58 57 54 51 50 51 54 56 56 58 63 67 69 69 69 70 70 68 68 70 71 69 65 61 59 58 58 57 56 57 60 61 61 61 61 62 65 66 64 62 62 62 62 61 61 60 60 61 63 64 65
83 81 82 83 82 82 84 81 76 75 74 70 69 72 75 73 69 68 69 69 68 68 68 68 69 69 67 65 64 63 61 61 61 60 58 59 58 54 53 54 55 56 55 55 58 61 64 65 66 67 67 68 69 70 70 70 69 64 60 59 58 56 53 52 53 55 57 57 58 60 62 66 68 68 66 65 64 64 64 64 63 63 62 62 65 67
91 87 85 83 81 83 85 83 78 78 77 76 74 73 71 68 65 65 66 67 69 73 76 77 77 76 73 72 72 70 67 65 63 61 61 61 59 55 54 57 59 58 56 56 57 60 62 64 65 66 65 66 69 70 71 71 70 65 62 61 59 54 51 51 52 55 59 62 64 64 66 68 70 70 68 67 68 68 67 67 66 65 63 63 65 68
94 93 93 93 93 94 95 91 86 84 82 80 79 76 69 64 61 63 69 73 77 80 83 83 81 80 79 79 78 77 74 71 68 66 64 63 61 59 58 60 63 63 62 62 61 62 63 65 66 68 68 66 67 69 71 71 69 66 64 62 59 55 53 53 55 59 65 69 70 70 71 72 72 72 70 69 70 71 71 70 69 66 65 65 67 70
94 95 97 98 100 102 103 101 99 97 93 89 88 87 86 84 81 79 79 78 78 80 83 83 82 81 81 81 81 82 82 78 75 73 72 70 67 66 65 65 66 67 69 69 67 67 68 69 70 71 72 71 71 71 72 70 68 67 66 63 61 59 59 59 61 64 68 72 74 74 74 74 74 75 75 74 73 74 74 74 73 70 67 67 69 71
93 94 96 98 101 103 104 103 103 102 100 98 97 99 98 96 94 90 86 81 78 78 80 82 83 84 85 86 87 88 88 86 83 83 83 81 79 77 76 75 76 79 78 74 70 70 71 72 73 73 72 72 72 72 70 69 68 69 69 68 67 67 67 67 69 71 72 75 77 78 78 78 78 79 80 80 80 79 78 77 76 73 71 70 71 71
90 92 93 96 99 101 101 101 101 102 100 97 98 101 101 97 92 88 85 84 84 84 86 89 91 93 94 94 93 92 91 91 90 90 90 90 88 86 85 85 86 86 81 76 74 73 73 73 74 75 74 72 73 74 74 73 74 75 75 75 75 75 75 77 78 78 77 77 79 81 83 83 83 83 83 84 84 82 78 76 77 77 74 72 71 69
85 87 89 92 95 98 99 99 101 102 101 98 96 96 96 95 94 91 90 92 96 99 101 103 103 103 102 100 98 97 97 97 96 96 95 94 92 90 89 91 91 88 83 81 79 76 75 76 78 78 78 78 79 81 81 82 83 85 85 83 83 83 84 83 82 81 80 80 82 86 87 87 87 87 87 87 87 83 78 77 80 80 77 74 70 68
Wind_Direction
283 282 280 285 292 292 289 287 287 289 289 290 292 292 292 293 297 302 299 295 296 293 291 292 291 289 288 287 288 290 290 287 287 290 292 295 296 295 293 290 287 288 290 291 290 289 290 292 292 291 291 292 290 288 286 285 285 285 284 285 286 286 285 285 284 285 285 287 288 289 290 290 291 292 292 292 291 290 289 287 285 284 282 281 281 281
282 280 281 288 292 288 285 285 287 288 289 289 290 290 290 292 296 298 296 294 294 291 291 292 290 287 286 287 288 290 290 288 288 288 290 294 295 295 294 293 291 291 293 295 292 290 290 290 288 288 289 289 288 286 285 284 284 284 284 285 285 284 284 284 284 285 286 287 288 289 290 290 291 292 292 291 291 290 288 287 285 283 282 282 283 283
281 278 282 289 287 282 282 283 285 287 288 289 290 290 290 293 296 295 294 293 291 290 291 291 288 286 285 285 286 288 288 288 289 290 292 294 294 295 294 293 292 293 296 296 293 291 289 288 286 285 287 287 286 285 285 284 284 284 284 284 283 283 283 284 285 286 287 288 289 290 290 291 292 292 292 291 290 289 288 286 285 284 283 283 285 286
278 278 282 283 280 280 281 281 281 283 285 287 288 288 290 295 296 293 293 292 289 289 291 291 287 285 285 285 285 286 286 287 291 292 291 290 291 292 292 292 293 296 299 298 294 290 288 285 283 283 284 285 284 284 285 285 286 285 284 283 282 282 283 284 285 286 287 288 289 290 290 291 291 291 291 291 290 288 287 286 285 284 284 285 286 286
275 278 279 278 277 278 279 279 279 280 282 283 284 286 290 294 293 292 293 292 290 289 290 290 288 286 286 286 285 284 282 285 288 287 285 289 291 290 290 292 294 298 301 298 293 289 287 284 282 281 281 281 282 283 285 286 286 285 284 282 282 282 283 284 285 286 287 288 288 289 289 289 290 291 291 290 289 287 286 286 285 285 285 286 286 286
272 274 275 277 277 277 276 276 277 279 281 280 281 284 288 290 290 290 291 290 290 290 290 290 289 288 288 288 288 288 286 286 285 284 287 294 295 293 292 292 294 299 301 298 293 290 288 285 282 280 279 280 281 284 285 286 286 286 285 283 283 284 285 286 286 286 287 287 287 287 287 288 289 289 289 288 287 287 287 286 285 286 286 286 286 285
271 271 273 274 275 275 274 273 275 279 280 278 279 282 285 286 287 287 288 288 288 289 290 289 289 291 292 291 293 294 292 289 286 287 294 297 297 296 295 295 296 298 298 296 293 291 288 285 283 282 282 283 284 284 285 285 286 286 285 285 285 285 285 285 286 286 287 287 287 286 286 287 287 287 286 286 287 288 288 287 286 286 286 286 285 285
275 275 274 273 273 272 271 272 275 278 277 276 279 281 282 283 283 284 285 285 286 288 287 286 287 292 295 296 298 296 291 290 291 293 296 297 297 299 299 298 297 296 294 292 291 290 288 285 283 282 283 284 284 284 283 283 283 283 284 284 284 284 284 285 286 286 287 286 286 286 285 286 286 285 286 287 288 289 289 289 288 287 286 286 286 285
278 276 275 274 272 271 271 273 275 274 275 276 278 279 279 279 280 282 283 283 285 285 283 284 286 289 293 296 296 293 290 292 294 294 294 295 297 300 302 300 296 293 290 288 288 289 286 284 282 282 283 283 282 281 281 281 281 281 282 282 282 283 284 285 285 285 285 286 286 285 285 285 285 286 287 289 289 289 290 290 289 288 287 287 286 285
277 277 278 276 273 273 274 274 273 273 274 275 276 277 277 278 279 280 280 281 282 281 280 283 287 289 292 292 291 289 292 295 296 296 296 295 296 300 302 299 297 292 286 285 286 287 287 285 284 283 282 280 280 279 279 279 278 279 279 280 280 281 282 283 283 283 284 284 285 285 284 285 286 287 288 289 289 289 289 289 288 287 287 287 286 284
276 277 277 277 278 278 276 274 273 272 272 273 274 275 276 277 278 278 278 278 278 277 280 283 287 290 289 288 289 292 295 297 299 299 298 295 295 299 299 297 296 293 289 288 289 287 287 286 284 282 279 278 278 278 277 277 276 276 277 277 278 279 280 281 282 282 283 283 283 283 283 285 286 287 288 288 287 287 287 286 285 285 285 285 284 283
275 274 275 278 279 278 277 276 275 272 271 272 273 274 275 275 275 274 274 273 273 277 283 285 286 286 283 283 288 293 297 300 301 299 296 295 296 297 296 293 293 292 290 292 294 290 287 285 283 281 278 277 278 277 277 277 276 276 277 278 279 279 280 280 281 284 283 281 280 280 282 284 286 287 287 285 284 285 285 284 283 283 283 284 283 283
274 273 274 275 275 277 279 277 276 274 273 272 271 271 271 272 271 270 270 271 273 279 285 286 285 281 280 283 287 291 296 299 299 297 296 296 297 300 297 292 291 290 288 290 293 291 287 283 282 280 279 279 279 279 279 278 278 278 278 280 280 280 280 279 281 287 286 279 277 278 280 283 284 284 284 282 282 282 283 283 283 283 284 285 285 284
275 273 272 274 276 278 277 275 275 274 272 270 268 267 267 268 268 268 270 273 277 281 285 284 281 279 282 287 289 291 294 294 294 295 296 297 298 301 300 295 293 293 290 289 289 287 284 282 281 279 280 280 281 281 281 281 280 279 279 280 280 280 280 279 281 287 287 281 278 280 281 282 282 281 281 280 281 282 284 285 285 285 286 286 286 287
275 274 273 275 276 274 271 272 274 273 270 268 267 266 264 264 265 268 272 275 278 281 281 280 278 280 285 289 292 294 294 294 295 296 297 297 298 301 299 295 294 294 292 287 283 280 279 280 280 279 279 280 281 281 282 282 281 279 279 279 280 280 281 282 283 285 284 282 282 283 284 283 282 281 280 280 282 284 287 288 288 288 288 288 288 288
276 274 272 273 274 271 270 270 270 270 270 269 268 266 265 266 268 270 271 273 275 276 277 277 278 282 286 288 290 292 293 295 297 298 297 297 298 301 298 295 295 294 289 283 279 276 275 276 277 278 278 280 281 282 282 282 281 280 279 279 279 280 281 284 285 283 281 282 284 285 285 284 284 284 284 285 286 288 290 291 292 292 292 291 291 290
272 270 267 270 272 271 270 269 268 270 270 269 267 267 270 272 272 271 271 271 271 272 274 277 279 281 284 287 288 289 291 294 294 296 296 296 298 299 298 296 294 291 286 282 280 277 275 274 275 276 278 279 281 282 282 283 282 282 282 282 281 280 282 284 284 279 278 281 283 284 284 284 285 286 287 288 289 291 292 292 292 292 293 293 292 291
269 268 265 267 270 269 270 271 271 269 268 268 268 270 275 275 273 272 271 271 270 271 272 274 276 278 281 285 289 290 293 294 294 295 294 293 295 296 296 295 289 286 285 282 280 277 275 275 275 277 278 279 280 281 282 284 284 284 285 285 284 283 283 284 282 278 277 279 281 281 282 284 285 286 287 287 288 289 290 290 290 290 291 291 291 291
272 274 272 270 269 267 267 270 270 268 268 270 272 273 275 275 275 274 272 272 273 273 273 272 272 274 277 282 286 288 289 290 292 293 293 294 296 295 295 294 288 287 287 284 280 278 278 278 278 278 278 278 279 280 281 283 284 285 285 285 286 285 283 283 282 280 278 278 280 280 282 284 285 286 286 286 286 286 287 287 287 288 288 289 289 289
277 276 273 271 269 267 265 265 265 268 272 275 275 274 273 272 273 272 272 274 274 273 273 272 270 273 278 281 282 282 283 285 287 288 291 295 297 295 295 295 290 287 287 286 285 283 282 281 280 279 278 278 278 278 279 281 282 284 284 285 285 285 283 282 282 282 280 280 281 282 283 284 285 285 286 286 285 285 285 285 285 286 286 286 287 288
278 276 274 273 271 269 267 266 266 269 273 273 273 272 271 270 270 270 271 271 272 272 273 274 273 273 276 277 276 277 280 282 283 285 288 290 292 293 295 296 293 289 288 289 289 288 285 282 279 278 277 277 277 277 277 279 280 283 285 286 286 285 284 282 282 283 283 283 284 285 286 287 288 287 287 286 285 284 284 283 284 284 285 285 286 287
278 278 276 274 271 271 272 272 272 272 270 270 270 270 269 269 268 269 270 272 274 274 274 275 274 273 274 273 274 278 281 282 282 283 285 286 288 290 290 292 293 292 293 292 290 290 287 283 279 279 278 278 278 278 278 279 281 284 286 287 287 287 286 285 285 286 287 288 289 290 291 292 292 291 289 287 285 284 284 284 285 286 286 286 287 287
279 277 275 274 274 274 274 274 273 273 272 270 270 270 270 270 270 271 273 275 275 273 272 273 272 272 274 275 277 279 280 280 281 283 285 287 287 287 286 288 289 290 292 291 290 288 284 281 280 280 280 280 281 282 283 284 286 288 289 289 290 291 289 287 287 288 289 290 291 292 293 294 295 293 291 289 287 287 287 287 287 288 288 288 287 286
279 276 275 274 273 272 271 271 272 272 272 270 270 273 275 275 274 273 273 273 270 268 269 270 269 272 277 278 278 279 278 277 279 282 284 284 284 283 283 284 284 284 285 286 285 283 280 279 279 280 280 280 280 282 284 286 288 289 290 290 292 293 292 290 289 289 289 290 292 293 293 294 294 293 291 290 289 289 289 288 289 289 288 287 287 286
278 277 275 273 271 271 271 270 270 271 270 269 270 273 274 273 273 272 272 271 268 267 268 269 268 272 278 279 277 278 278 278 279 281 281 281 281 281 281 281 280 279 280 280 279 280 280 280 280 279 279 278 279 281 283 285 287 287 287 289 291 293 292 290 289 289 290 292 293 294 294 293 292 290 290 290 290 290 290 289 289 288 288 287 287 286
276 276 276 277 276 275 274 272 269 267 265 265 266 268 269 269 269 269 270 269 269 270 271 270 270 274 277 275 275 276 278 280 281 281 281 282 282 281 280 279 278 277 278 278 279 280 281 280 278 277 278 277 277 281 284 284 284 284 284 288 291 291 289 287 288 290 291 292 293 294 293 292 291 290 290 290 290 289 289 289 289 288 288 287 286 285
278 276 277 281 280 276 276 274 268 261 257 259 261 262 264 266 267 269 269 268 270 273 273 271 273 276 275 274 275 277 279 280 280 280 281 281 280 278 277 277 279 279 278 278 280 281 280 278 275 275 277 277 277 280 283 283 282 282 285 289 291 289 287 287 290 291 291 291 292 292 292 292 291 290 289 288 288 288 288 289 289 288 288 286 285 284
274 274 276 281 280 275 273 271 266 259 256 258 260 261 262 264 266 268 268 268 271 273 272 271 273 276 277 278 280 280 279 278 277 278 278 276 276 276 277 278 279 279 278 279 279 278 276 274 272 273 276 278 280 283 285 284 283 285 289 291 289 286 286 289 291 291 290 291 292 292 291 291 289 288 287 287 287 287 287 288 288 288 287 285 283 283
268 270 271 275 275 273 271 269 266 262 258 257 260 263 265 267 271 273 271 269 269 269 270 272 274 276 279 281 282 281 280 277 275 275 274 274 276 277 278 278 277 275 275 275 275 274 274 273 273 275 278 281 283 285 286 285 286 288 290 288 284 284 287 289 289 289 289 290 290 290 290 288 287 287 287 287 287 287 287 287 287 286 285 284 283 283
269 270 270 271 273 272 272 272 272 269 266 263 261 264 268 270 274 277 275 273 272 272 274 278 279 278 278 280 283 285 283 277 274 274 275 277 278 278 277 277 274 271 270 271 271 271 272 276 279 281 283 284 285 285 285 286 288 288 287 283 280 283 287 286 286 287 288 288 288 288 287 287 287 287 287 287 287 288 288 288 287 286 286 285 284 283
272 274 273 274 275 274 273 273 274 273 274 273 270 269 270 271 272 274 276 277 277 277 278 281 282 280 280 283 288 288 284 281 280 281 281 281 279 277 276 273 268 264 264 268 273 274 275 279 283 285 285 286 286 286 286 287 287 286 283 279 279 282 284 283 284 285 285 285 285 285 285 285 285 285 285 286 288 289 289 289 288 288 288 287 287 286
275 276 276 276 276 275 274 275 275 276 278 277 275 274 273 271 272 275 276 276 276 277 277 278 280 282 285 287 288 285 284 284 286 287 287 285 279 275 272 267 263 263 265 270 274 278 281 282 283 284 286 287 288 289 289 288 286 283 279 276 278 281 280 280 282 282 282 282 283 283 283 283 283 283 284 286 288 289 290 290 289 289 289 289 290 290
277 277 277 276 276 276 276 276 277 279 277 274 274 277 277 276 277 279 279 277 276 276 276 277 278 281 285 286 287 287 286 285 284 284 283 278 271 268 267 266 267 272 276 278 280 283 286 286 286 286 286 288 289 289 289 287 284 280 275 275 277 277 276 277 279 279 280 280 280 280 280 281 281 283 285 287 289 291 293 293 292 290 289 290 291 292
277 276 276 277 277 277 277 277 278 276 272 271 276 280 280 279 280 281 281 280 280 279 279 280 282 284 287 288 288 286 284 282 282 280 274 269 267 264 262 265 271 278 283 286 287 288 289 288 288 287 288 288 289 288 287 284 280 276 273 273 274 273 273 275 276 277 278 278 278 278 278 279 282 284 286 289 292 293 294 294 293 293 292 293 294 294
275 274 275 276 276 276 277 277 275 272 273 276 279 279 278 279 280 280 280 280 281 282 283 284 286 288 289 286 282 280 281 282 281 275 271 272 273 270 267 268 274 280 285 288 288 288 287 287 287 287 287 287 287 285 283 279 275 272 271 270 270 271 272 274 275 276 277 277 277 277 278 280 283 285 289 292 293 294 294 295 295 295 295 294 294 295
271 272 274 274 273 274 275 274 273 274 277 279 278 276 278 280 280 281 281 280 280 282 285 286 287 287 285 281 280 281 282 282 279 275 274 275 275 275 277 278 279 282 284 284 284 284 284 283 284 284 283 283 282 279 276 273 270 269 268 268 269 270 271 273 275 277 278 278 279 280 281 282 285 288 291 293 294 294 295 296 296 296 295 294 293 293
270 271 272 273 273 274 274 274 275 276 277 276 276 277 280 282 282 283 283 282 281 281 282 283 284 284 283 283 284 284 283 282 279 277 276 276 276 277 279 279 279 279 280 280 281 280 279 279 279 279 278 277 276 273 270 267 266 266 266 266 267 268 270 274 277 279 279 280 281 282 284 286 287 289 291 292 293 293 294 294 295 296 296 295 294 294
270 270 271 273 273 273 274 274 275 275 275 276 278 281 283 284 284 285 285 283 281 280 280 281 282 283 284 284 284 284 283 280 277 276 276 277 278 277 276 276 276 277 278 278 277 275 274 274 274 272 270 270 269 267 264 263 264 264 264 264 266 270 273 277 279 280 280 281 282 283 284 286 287 289 289 290 291 291 291 292 294 296 296 295 295 296
269 269 270 271 272 272 272 273 274 275 277 279 281 282 283 284 286 287 283 280 279 281 283 285 285 284 283 282 282 280 278 276 275 276 277 276 275 274 274 274 275 275 275 274 272 268 267 267 266 263 262 263 263 261 261 262 263 263 263 265 269 273 277 280 280 281 282 283 284 284 285 286 286 287 287 288 289 290 290 293 296 297 296 295 295 295
267 268 268 268 269 271 273 274 276 277 279 280 282 282 282 283 285 282 277 277 281 286 288 287 285 282 280 278 277 275 273 273 274 276 276 275 274 273 273 272 272 271 270 268 266 262 260 261 260 259 260 262 263 263 263 263 264 264 264 268 272 276 279 280 281 283 284 285 286 286 287 287 286 285 286 287 288 289 292 295 296 296 296 295 295 295
266 267 269 270 271 272 274 275 277 278 279 280 282 283 283 282 280 276 275 278 283 284 282 279 276 274 273 272 271 271 271 272 273 274 273 272 271 269 269 269 268 268 267 264 261 258 257 258 258 259 261 263 264 264 265 265 265 266 267 270 274 277 279 280 281 284 285 286 286 287 286 286 285 286 286 286 287 289 292 293 295 296 296 296 295 295
265 267 269 270 271 272 273 274 276 277 278 279 280 281 281 279 276 274 275 275 274 272 271 268 267 268 269 269 269 270 270 270 271 271 271 271 270 270 270 269 268 269 270 267 261 258 257 256 256 257 259 260 260 262 263 265 267 268 269 272 274 276 278 280 283 284 285 286 286 286 286 285 286 287 287 286 287 289 289 291 294 297 298 298 296 295
263 264 266 268 270 271 272 274 276 278 278 278 279 279 277 274 272 271 270 269 268 267 266 264 263 265 268 269 269 269 269 269 269 269 270 270 270 270 269 267 268 273 278 276 269 264 261 258 256 255 255 256 257 259 260 263 265 268 269 271 273 276 279 283 285 286 288 288 287 286 286 286 286 287 286 286 287 287 287 290 295 299 301 301 300 298
262 264 265 266 267 268 269 269 270 272 272 273 275 277 275 273 271 269 266 266 266 265 263 263 264 267 268 269 268 267 267 268 267 266 265 265 265 264 261 263 272 280 282 280 274 270 267 265 263 260 256 255 256 258 259 261 264 267 268 269 273 277 281 284 287 289 291 290 287 286 287 288 289 289 287 287 287 285 285 288 293 298 301 302 301 299
259 260 262 263 264 263 263 264 264 266 268 269 270 272 273 273 270 264 261 261 260 261 263 265 268 270 269 268 267 266 266 266 264 262 262 262 263 261 259 266 278 285 285 280 275 271 269 268 267 266 262 259 259 259 260 262 264 266 267 270 274 278 281 284 288 290 291 291 290 290 291 292 292 291 290 290 288 285 284 286 291 296 299 300 300 299
255 254 255 258 259 259 260 262 263 265 268 270 270 267 266 266 262 257 256 258 261 265 268 269 270 270 269 268 268 268 267 265 263 261 261 263 262 258 260 271 280 284 284 283 278 273 270 267 266 265 264 261 261 261 262 263 264 265 266 270 273 276 278 281 285 288 290 291 291 291 291 291 292 292 292 290 288 286 285 286 289 294 297 299 300 299
256 254 253 253 254 256 257 258 259 262 266 268 268 263 257 254 254 255 258 262 264 266 268 269 270 270 270 270 270 270 270 268 264 262 262 263 261 258 262 271 277 279 282 281 278 275 272 268 266 265 263 262 261 261 262 263 264 264 266 269 271 272 275 279 283 286 289 289 289 289 288 289 290 291 292 291 289 287 285 285 288 292 295 298 299 300
258 257 255 254 254 256 257 257 257 259 261 262 263 261 258 257 258 259 260 261 261 262 264 266 267 268 269 270 270 271 272 270 266 263 263 263 261 260 263 269 272 276 280 280 277 275 272 270 269 267 265 264 263 263 263 263 264 264 266 268 269 268 270 276 282 285 287 288 289 289 288 286 287 289 290 291 290 288 287 286 287 289 293 296 298 300
259 258 257 257 256 257 258 258 258 258 258 258 259 260 259 258 258 258 257 255 255 256 259 262 265 267 269 270 271 272 273 271 268 266 266 266 264 262 263 266 269 274 276 276 275 274 272 271 271 269 267 266 264 263 262 261 262 264 265 267 266 265 268 274 279 281 283 285 288 289 288 286 286 286 287 288 288 289 289 287 286 288 291 295 297 299
260 260 259 259 259 259 258 258 258 257 257 256 255 255 254 253 253 253 252 253 255 257 260 263 265 266 268 269 269 270 270 270 270 269 268 268 267 265 264 265 269 272 271 270 273 274 272 270 269 269 268 268 268 266 264 263 263 265 266 267 266 266 269 273 276 278 279 281 285 288 289 287 286 286 286 286 287 288 288 285 284 286 290 293 296 297
262 262 261 260 260 260 259 258 256 256 255 254 251 249 249 250 251 251 251 253 256 259 262 264 265 265 266 266 266 267 267 268 268 267 267 267 266 264 263 265 268 270 268 268 271 274 272 270 269 268 268 269 269 270 269 268 268 268 269 269 268 268 270 271 273 275 276 278 282 286 287 286 285 285 285 286 286 286 284 282 283 285 288 290 293 294
Height
5814 5811 5809 5815 5819 5818 5814 5811 5809 5808 5808 5806 5805 5803 5800 5799 5800 5804 5802 5796 5794 5789 5787 5790 5785 5785 5789 5790 5792 5793 5795 5795 5794 5791 5790 5790 5789 5788 5788 5786 5784 5782 5782 5783 5781 5779 5778 5777 5776 5775 5774 5773 5771 5771 5770 5769 5768 5768 5767 5767 5766 5766 5765 5764 5763 5762 5761 5761 5760 5759 5758 5757 5757 5756 5755 5754 5753 5753 5752 5750 5750 5749 5748 5747 5747 5746
5809 5804 5806 5814 5815 5812 5809 5807 5805 5803 5803 5801 5800 5798 5796 5796 5796 5798 5797 5793 5790 5783 5782 5786 5780 5778 5784 5785 5787 5789 5788 5789 5791 5790 5788 5787 5785 5784 5784 5782 5780 5778 5778 5778 5776 5774 5774 5773 5771 5770 5770 5768 5767 5766 5765 5764 5763 5763 5763 5762 5762 5761 5761 5760 5758 5757 5756 5755 5755 5754 5753 5751 5751 5750 5749 5748 5748 5747 5746 5745 5744 5743 5742 5741 5741 5740
5802 5798 5804 5811 5809 5806 5805 5804 5801 5798 5797 5796 5796 5792 5790 5794 5793 5791 5791 5789 5785 5779 5777 5779 5773 5772 5779 5781 5783 5785 5784 5784 5786 5786 5786 5784 5782 5781 5780 5778 5776 5775 5775 5773 5771 5770 5769 5768 5767 5766 5765 5763 5762 5761 5760 5759 5759 5759 5758 5758 5757 5756 5756 5754 5753 5752 5751 5750 5750 5748 5747 5746 5746 5745 5744 5742 5742 5742 5740 5739 5739 5738 5737 5736 5735 5734
5793 5793 5801 5804 5802 5801 5800 5799 5797 5795 5795 5793 5791 5788 5786 5791 5789 5783 5785 5783 5779 5776 5773 5772 5765 5765 5774 5776 5779 5782 5780 5780 5782 5782 5783 5781 5780 5779 5776 5774 5772 5771 5771 5769 5767 5766 5765 5764 5763 5762 5760 5759 5758 5756 5756 5755 5755 5754 5753 5753 5752 5751 5751 5750 5748 5747 5746 5745 5744 5743 5742 5741 5740 5739 5738 5737 5736 5736 5735 5734 5733 5732 5731 5730 5729 5728
5788 5789 5793 5795 5797 5797 5795 5793 5791 5790 5791 5789 5786 5785 5784 5787 5784 5779 5780 5776 5772 5772 5770 5766 5757 5756 5768 5771 5773 5778 5777 5777 5778 5777 5778 5777 5776 5776 5773 5771 5767 5766 5766 5765 5763 5762 5761 5760 5759 5757 5756 5755 5754 5753 5752 5751 5750 5750 5748 5747 5747 5746 5746 5745 5744 5742 5741 5740 5738 5737 5736 5735 5734 5733 5732 5732 5730 5730 5729 5728 5727 5726 5725 5724 5723 5722
5783 5785 5786 5788 5790 5791 5789 5787 5785 5785 5787 5784 5780 5781 5783 5782 5779 5776 5776 5770 5765 5765 5765 5763 5751 5745 5757 5766 5768 5772 5772 5772 5773 5771 5772 5772 5771 5771 5769 5767 5763 5761 5760 5759 5758 5757 5756 5755 5754 5753 5752 5751 5750 5750 5748 5747 5746 5744 5743 5742 5741 5741 5740 5739 5738 5737 5735 5734 5733 5731 5730 5730 5729 5728 5727 5725 5724 5723 5723 5722 5721 5720 5719 5718 5717 5716
5776 5780 5782 5783 5784 5784 5782 5780 5781 5782 5780 5777 5775 5778 5779 5778 5775 5772 5771 5767 5761 5759 5758 5757 5751 5741 5744 5756 5763 5764 5765 5765 5766 5767 5767 5766 5765 5765 5764 5762 5759 5757 5756 5754 5753 5753 5752 5751 5750 5749 5748 5747 5746 5745 5744 5742 5741 5739 5737 5736 5736 5735 5735 5734 5733 5731 5730 5728 5727 5726 5725 5724 5723 5722 5720 5719 5719 5718 5716 5716 5715 5714 5713 5712 5711 5710
5772 5774 5776 5777 5778 5776 5774 5775 5778 5777 5773 5770 5770 5773 5773 5772 5770 5767 5765 5762 5757 5755 5751 5749 5752 5744 5735 5742 5753 5755 5756 5758 5760 5763 5763 5761 5760 5759 5758 5756 5754 5752 5750 5750 5749 5748 5747 5746 5746 5745 5744 5744 5742 5740 5739 5737 5735 5733 5732 5731 5730 5730 5729 5728 5727 5726 5724 5722 5721 5720 5719 5718 5717 5715 5714 5713 5713 5712 5710 5709 5708 5707 5706 5705 5704 5704
5769 5767 5769 5770 5770 5769 5769 5771 5773 5771 5767 5766 5766 5766 5766 5765 5764 5762 5760 5758 5754 5749 5743 5743 5750 5747 5732 5734 5743 5742 5745 5752 5754 5757 5758 5757 5756 5755 5752 5749 5748 5747 5745 5744 5744 5743 5742 5741 5741 5740 5740 5738 5737 5735 5733 5732 5730 5728 5727 5726 5725 5724 5723 5723 5722 5720 5719 5717 5715 5713 5712 5711 5710 5709 5708 5706 5706 5705 5703 5702 5702 5701 5700 5699 5698 5697
5763 5762 5763 5762 5762 5763 5765 5766 5765 5764 5762 5761 5761 5759 5759 5758 5757 5757 5753 5752 5750 5740 5735 5739 5746 5743 5729 5726 5733 5733 5737 5744 5746 5749 5751 5751 5752 5751 5748 5744 5741 5741 5739 5739 5738 5737 5736 5735 5735 5735 5734 5732 5731 5729 5728 5726 5725 5723 5723 5721 5720 5720 5719 5718 5717 5715 5714 5712 5709 5707 5705 5705 5704 5703 5702 5700 5699 5699 5697 5696 5695 5694 5693 5692 5691 5691
5760 5758 5756 5755 5756 5758 5758 5758 5758 5758 5756 5755 5756 5753 5752 5752 5750 5750 5746 5745 5742 5731 5732 5740 5743 5741 5726 5716 5722 5726 5730 5736 5737 5740 5741 5742 5746 5747 5744 5739 5737 5735 5732 5732 5732 5731 5730 5729 5729 5728 5727 5726 5725 5724 5722 5721 5720 5718 5717 5716 5716 5715 5714 5712 5711 5710 5709 5707 5704 5701 5699 5699 5698 5697 5696 5695 5693 5692 5691 5690 5688 5688 5687 5686 5685 5684
5754 5751 5751 5751 5751 5751 5751 5751 5751 5750 5750 5750 5750 5748 5746 5745 5743 5741 5738 5738 5733 5725 5730 5737 5739 5736 5721 5712 5719 5723 5724 5729 5730 5731 5732 5733 5737 5741 5739 5735 5734 5732 5726 5724 5724 5724 5724 5723 5722 5722 5720 5720 5719 5718 5717 5715 5714 5713 5712 5711 5710 5709 5708 5706 5705 5704 5703 5701 5699 5695 5693 5692 5692 5691 5690 5689 5687 5686 5685 5683 5682 5681 5680 5679 5678 5677
5746 5745 5746 5745 5745 5747 5746 5744 5743 5743 5744 5744 5743 5742 5740 5738 5735 5731 5729 5729 5727 5724 5728 5732 5731 5724 5711 5711 5720 5722 5722 5724 5723 5722 5724 5725 5728 5733 5732 5729 5728 5728 5725 5722 5719 5717 5717 5716 5716 5715 5714 5713 5712 5712 5711 5710 5709 5707 5706 5705 5704 5703 5701 5700 5699 5698 5696 5694 5693 5690 5687 5687 5686 5685 5683 5682 5681 5680 5678 5677 5676 5675 5673 5672 5671 5670
5736 5738 5740 5739 5741 5743 5740 5738 5737 5737 5738 5736 5735 5735 5733 5731 5726 5722 5723 5723 5721 5722 5725 5725 5720 5710 5704 5709 5715 5718 5721 5721 5719 5717 5717 5718 5721 5725 5725 5722 5721 5721 5720 5720 5718 5714 5710 5709 5710 5709 5708 5707 5706 5705 5704 5703 5703 5701 5700 5699 5697 5697 5695 5693 5692 5692 5690 5687 5686 5685 5682 5681 5679 5678 5677 5676 5675 5673 5672 5671 5669 5668 5666 5665 5664 5662
5728 5729 5734 5734 5735 5736 5733 5733 5732 5730 5730 5729 5729 5727 5724 5723 5720 5716 5720 5719 5715 5716 5717 5714 5708 5702 5702 5706 5708 5709 5712 5712 5713 5714 5712 5711 5713 5718 5718 5715 5714 5715 5714 5714 5713 5711 5707 5704 5703 5702 5702 5701 5700 5699 5698 5697 5696 5694 5693 5692 5691 5690 5688 5687 5686 5685 5683 5681 5680 5679 5677 5675 5673 5671 5670 5669 5668 5667 5665 5663 5662 5660 5659 5658 5656 5655
5722 5722 5727 5725 5724 5727 5727 5728 5727 5723 5723 5723 5721 5718 5715 5718 5718 5714 5714 5714 5711 5708 5706 5702 5698 5698 5701 5702 5704 5704 5704 5705 5705 5706 5706 5704 5706 5710 5711 5709 5708 5709 5708 5708 5707 5706 5703 5700 5698 5697 5696 5694 5692 5691 5690 5689 5689 5688 5687 5685 5684 5682 5681 5680 5679 5678 5676 5676 5675 5674 5672 5669 5667 5665 5664 5662 5661 5659 5658 5656 5654 5653 5651 5650 5649 5648
5715 5715 5720 5717 5714 5718 5718 5719 5720 5717 5716 5715 5712 5711 5712 5715 5713 5707 5705 5708 5707 5699 5697 5697 5692 5693 5698 5697 5698 5700 5700 5701 5701 5700 5700 5699 5700 5704 5705 5704 5703 5703 5702 5701 5701 5699 5696 5694 5692 5691 5690 5688 5686 5684 5683 5682 5681 5680 5679 5678 5677 5675 5674 5673 5672 5670 5669 5669 5668 5667 5665 5663 5661 5659 5657 5655 5653 5651 5650 5648 5647 5645 5644 5643 5641 5640
5707 5706 5713 5712 5707 5709 5709 5707 5710 5710 5707 5706 5706 5708 5710 5707 5704 5701 5696 5698 5699 5691 5689 5693 5689 5689 5695 5693 5691 5693 5693 5692 5692 5693 5692 5693 5695 5698 5700 5699 5696 5696 5696 5695 5694 5691 5689 5688 5686 5685 5684 5682 5680 5678 5676 5675 5673 5672 5671 5670 5669 5667 5667 5666 5664 5663 5662 5661 5660 5659 5658 5656 5655 5653 5651 5648 5646 5644 5642 5641 5639 5637 5636 5635 5633 5632
5701 5696 5702 5707 5702 5701 5701 5699 5699 5699 5698 5699 5702 5705 5703 5698 5694 5693 5689 5688 5690 5684 5681 5686 5685 5685 5691 5691 5689 5689 5688 5686 5684 5683 5681 5683 5686 5687 5691 5693 5689 5688 5689 5687 5686 5684 5682 5680 5679 5678 5676 5675 5674 5672 5670 5668 5665 5665 5664 5663 5662 5661 5659 5658 5657 5656 5655 5653 5652 5650 5650 5649 5648 5646 5644 5642 5639 5637 5635 5633 5631 5630 5628 5627 5625 5624
5695 5687 5688 5695 5695 5692 5693 5693 5691 5691 5693 5693 5694 5695 5694 5691 5686 5683 5681 5681 5681 5676 5673 5676 5679 5683 5687 5689 5687 5684 5684 5682 5679 5677 5675 5675 5676 5675 5678 5683 5683 5682 5681 5679 5678 5676 5674 5672 5670 5668 5668 5667 5666 5665 5663 5660 5658 5657 5656 5656 5656 5654 5652 5651 5650 5649 5647 5645 5644 5643 5642 5641 5640 5639 5638 5635 5632 5630 5628 5625 5624 5622 5620 5619 5617 5616
5684 5677 5675 5682 5685 5683 5684 5686 5686 5687 5687 5683 5682 5682 5682 5682 5679 5673 5671 5673 5673 5668 5666 5667 5669 5678 5685 5682 5679 5679 5680 5679 5674 5673 5674 5672 5670 5668 5667 5670 5672 5671 5672 5671 5669 5667 5666 5664 5661 5660 5660 5658 5657 5656 5654 5652 5650 5649 5649 5648 5648 5647 5646 5644 5643 5641 5639 5638 5636 5635 5634 5633 5632 5631 5630 5628 5625 5622 5620 5618 5616 5614 5612 5611 5609 5607
5674 5668 5665 5668 5671 5673 5675 5679 5680 5679 5676 5672 5669 5671 5673 5673 5671 5665 5660 5664 5667 5660 5658 5659 5655 5665 5678 5674 5672 5677 5675 5672 5669 5667 5668 5667 5666 5664 5662 5661 5662 5660 5660 5659 5658 5657 5656 5654 5652 5651 5651 5649 5648 5646 5645 5643 5642 5642 5641 5641 5640 5639 5638 5637 5635 5634 5632 5631 5629 5628 5626 5625 5624 5623 5622 5620 5617 5615 5612 5610 5608 5606 5605 5603 5601 5599
5666 5658 5654 5654 5659 5663 5667 5670 5670 5667 5665 5661 5657 5661 5665 5664 5663 5659 5652 5656 5660 5650 5650 5651 5639 5647 5670 5671 5668 5673 5670 5665 5663 5661 5660 5659 5658 5657 5656 5655 5655 5654 5652 5649 5647 5647 5645 5644 5643 5642 5642 5640 5638 5636 5635 5634 5634 5634 5634 5633 5631 5631 5631 5629 5628 5626 5624 5623 5621 5619 5618 5617 5616 5614 5613 5611 5609 5607 5605 5602 5600 5598 5597 5595 5592 5590
5654 5647 5643 5643 5646 5649 5655 5660 5659 5658 5656 5650 5648 5655 5659 5655 5654 5651 5646 5648 5647 5639 5642 5640 5622 5630 5662 5668 5661 5665 5665 5660 5658 5656 5654 5652 5650 5649 5648 5648 5648 5647 5645 5642 5638 5637 5636 5636 5635 5634 5633 5631 5630 5629 5628 5627 5627 5626 5625 5625 5624 5623 5623 5621 5619 5617 5616 5615 5613 5611 5610 5609 5607 5606 5604 5602 5600 5598 5596 5594 5592 5590 5587 5586 5583 5581
5642 5638 5633 5631 5631 5634 5642 5649 5650 5650 5646 5640 5641 5648 5648 5647 5645 5640 5638 5638 5630 5628 5636 5628 5609 5621 5653 5659 5652 5654 5655 5653 5654 5653 5648 5644 5643 5642 5641 5641 5641 5638 5636 5633 5629 5627 5628 5628 5628 5626 5625 5624 5623 5622 5622 5621 5620 5619 5618 5617 5616 5616 5615 5613 5611 5609 5607 5606 5604 5603 5602 5600 5599 5597 5595 5594 5591 5589 5587 5584 5582 5580 5578 5576 5573 5571
5631 5630 5625 5621 5620 5621 5628 5638 5643 5642 5636 5631 5633 5638 5638 5638 5635 5630 5630 5625 5616 5620 5626 5616 5605 5617 5640 5647 5644 5646 5648 5646 5647 5646 5641 5638 5637 5636 5633 5631 5630 5629 5627 5624 5622 5620 5620 5620 5619 5618 5617 5616 5616 5615 5615 5613 5612 5612 5611 5611 5610 5609 5607 5605 5603 5602 5600 5599 5597 5595 5594 5592 5591 5589 5586 5584 5582 5580 5577 5575 5572 5570 5568 5566 5564 5562
5620 5618 5618 5615 5612 5613 5617 5626 5634 5632 5625 5621 5625 5628 5628 5626 5625 5622 5617 5611 5611 5615 5611 5606 5607 5610 5619 5632 5637 5640 5642 5639 5637 5637 5635 5633 5630 5627 5624 5622 5622 5622 5620 5617 5615 5613 5612 5612 5612 5611 5609 5609 5609 5608 5607 5606 5605 5604 5604 5603 5602 5600 5598 5597 5595 5593 5591 5590 5589 5587 5586 5584 5583 5580 5577 5575 5573 5571 5568 5566 5563 5560 5558 5556 5554 5552
5609 5605 5611 5610 5605 5607 5608 5611 5618 5619 5615 5615 5616 5617 5618 5616 5615 5613 5605 5603 5611 5605 5591 5598 5607 5601 5604 5619 5626 5630 5634 5630 5627 5628 5627 5625 5622 5619 5617 5616 5615 5615 5612 5609 5607 5606 5605 5605 5604 5603 5602 5601 5601 5600 5599 5598 5598 5597 5596 5595 5593 5590 5589 5588 5586 5584 5582 5581 5580 5578 5577 5576 5573 5571 5568 5566 5564 5562 5559 5557 5554 5551 5549 5546 5544 5542
5599 5592 5601 5603 5597 5599 5601 5601 5605 5606 5606 5608 5607 5606 5609 5609 5606 5602 5599 5603 5606 5592 5581 5592 5600 5594 5599 5610 5613 5617 5620 5617 5615 5617 5617 5617 5615 5613 5610 5607 5607 5607 5603 5599 5599 5598 5598 5598 5597 5596 5594 5593 5592 5592 5591 5591 5590 5589 5587 5585 5583 5581 5581 5579 5577 5575 5573 5572 5571 5569 5568 5566 5564 5561 5559 5557 5555 5553 5550 5548 5545 5542 5540 5537 5534 5532
5590 5582 5591 5593 5585 5586 5591 5593 5595 5596 5594 5597 5599 5599 5599 5599 5598 5596 5594 5598 5597 5585 5580 5587 5588 5586 5594 5602 5604 5606 5606 5602 5603 5606 5608 5609 5607 5605 5602 5597 5598 5599 5594 5590 5590 5590 5590 5589 5589 5587 5586 5584 5584 5583 5583 5583 5582 5580 5578 5576 5574 5573 5572 5570 5568 5566 5565 5563 5562 5560 5558 5556 5554 5552 5550 5548 5546 5544 5541 5539 5536 5533 5530 5528 5525 5523
5582 5576 5582 5583 5573 5570 5580 5585 5585 5584 5582 5581 5585 5589 5589 5589 5591 5592 5591 5592 5589 5581 5580 5582 5575 5574 5588 5598 5597 5596 5593 5591 5594 5598 5600 5600 5596 5595 5593 5589 5588 5588 5586 5583 5581 5581 5582 5581 5579 5578 5577 5576 5576 5575 5575 5574 5572 5570 5569 5567 5566 5565 5563 5561 5560 5558 5556 5555 5553 5551 5550 5547 5545 5543 5541 5539 5537 5535 5533 5531 5528 5525 5522 5520 5517 5514
5574 5570 5573 5573 5560 5555 5569 5574 5570 5571 5568 5562 5566 5575 5582 5584 5584 5585 5586 5585 5582 5577 5575 5573 5566 5567 5583 5591 5586 5583 5585 5584 5586 5589 5589 5588 5586 5585 5584 5581 5578 5577 5578 5576 5574 5573 5573 5572 5570 5569 5568 5567 5567 5567 5566 5564 5562 5561 5560 5558 5557 5556 5555 5553 5551 5550 5548 5546 5545 5543 5541 5539 5537 5535 5533 5531 5529 5527 5525 5522 5520 5517 5514 5512 5509 5507
5564 5561 5562 5562 5549 5544 5557 5561 5558 5559 5549 5540 5552 5569 5576 5578 5575 5571 5570 5572 5575 5573 5566 5560 5561 5567 5575 5576 5572 5573 5578 5578 5578 5580 5579 5577 5576 5577 5576 5573 5570 5568 5569 5568 5567 5566 5564 5562 5561 5560 5559 5559 5558 5557 5556 5554 5553 5552 5550 5549 5549 5548 5546 5544 5543 5541 5539 5538 5536 5534 5533 5531 5529 5527 5524 5522 5520 5518 5516 5514 5511 5509 5506 5504 5501 5499
5555 5552 5551 5551 5541 5536 5545 5551 5548 5537 5522 5525 5551 5565 5564 5563 5562 5558 5556 5559 5564 5565 5558 5551 5554 5561 5564 5562 5561 5563 5567 5569 5571 5572 5569 5565 5566 5568 5567 5564 5562 5560 5560 5559 5557 5556 5553 5550 5549 5549 5549 5549 5548 5547 5546 5544 5543 5542 5541 5540 5540 5539 5537 5535 5534 5532 5531 5530 5528 5526 5525 5523 5520 5518 5516 5513 5511 5509 5507 5505 5503 5500 5498 5496 5493 5491
5546 5544 5542 5541 5535 5530 5535 5541 5529 5509 5507 5526 5545 5550 5549 5551 5553 5549 5544 5547 5551 5552 5551 5547 5544 5548 5552 5552 5552 5552 5554 5558 5561 5561 5558 5555 5556 5556 5554 5554 5554 5552 5551 5550 5547 5545 5542 5539 5538 5538 5539 5539 5538 5537 5536 5534 5533 5532 5532 5531 5530 5529 5527 5526 5524 5524 5522 5520 5519 5517 5516 5514 5511 5509 5507 5504 5502 5500 5499 5496 5494 5492 5490 5488 5486 5483
5538 5536 5533 5531 5526 5523 5524 5523 5509 5498 5509 5523 5525 5532 5542 5545 5546 5542 5531 5532 5542 5544 5540 5538 5536 5538 5541 5541 5543 5545 5545 5545 5545 5545 5546 5546 5547 5546 5542 5543 5544 5541 5541 5540 5537 5534 5532 5529 5529 5528 5528 5528 5528 5527 5526 5524 5523 5523 5522 5522 5521 5519 5518 5517 5516 5515 5513 5511 5510 5509 5507 5505 5502 5500 5498 5495 5494 5492 5491 5488 5487 5485 5483 5481 5478 5475
5529 5527 5524 5519 5514 5514 5511 5505 5499 5497 5501 5505 5508 5521 5535 5536 5539 5536 5517 5510 5526 5534 5530 5528 5528 5530 5532 5532 5534 5536 5535 5531 5525 5525 5532 5537 5538 5537 5534 5531 5529 5528 5529 5529 5526 5524 5521 5519 5519 5518 5517 5518 5518 5517 5516 5514 5514 5514 5513 5512 5511 5510 5509 5509 5508 5506 5504 5504 5502 5500 5498 5496 5493 5491 5489 5487 5486 5484 5483 5481 5479 5478 5475 5473 5470 5467
5518 5516 5516 5508 5501 5504 5501 5493 5492 5487 5483 5491 5502 5513 5524 5526 5529 5527 5506 5489 5501 5518 5521 5521 5522 5522 5524 5524 5523 5524 5522 5514 5506 5509 5521 5527 5526 5524 5521 5518 5517 5516 5517 5517 5515 5513 5510 5508 5509 5508 5507 5508 5508 5507 5506 5505 5505 5505 5504 5503 5502 5501 5501 5501 5499 5497 5496 5495 5494 5492 5490 5487 5485 5483 5481 5480 5478 5476 5475 5473 5471 5469 5467 5464 5462 5459
5506 5506 5508 5498 5489 5493 5491 5482 5480 5476 5474 5486 5499 5505 5513 5516 5519 5518 5493 5468 5481 5506 5514 5513 5514 5513 5512 5510 5509 5510 5505 5495 5491 5499 5509 5512 5511 5510 5507 5505 5506 5505 5505 5504 5503 5501 5498 5496 5497 5497 5496 5497 5497 5497 5496 5496 5497 5496 5495 5494 5493 5493 5493 5492 5489 5488 5487 5486 5485 5483 5481 5479 5477 5476 5474 5472 5470 5469 5467 5466 5463 5461 5458 5456 5453 5450
5494 5494 5494 5486 5480 5483 5481 5472 5469 5469 5471 5482 5491 5496 5504 5508 5510 5502 5474 5459 5478 5500 5502 5500 5499 5497 5495 5494 5493 5492 5488 5482 5482 5489 5494 5495 5494 5494 5493 5493 5493 5493 5492 5492 5491 5489 5487 5486 5486 5486 5486 5487 5486 5486 5486 5487 5487 5486 5485 5485 5484 5484 5484 5481 5479 5479 5478 5477 5475 5474 5473 5471 5469 5468 5466 5463 5462 5461 5459 5457 5455 5452 5449 5447 5444 5441
5483 5481 5478 5474 5472 5474 5471 5463 5459 5461 5468 5477 5482 5486 5493 5497 5492 5479 5465 5468 5482 5484 5480 5481 5480 5478 5479 5478 5476 5476 5474 5473 5474 5475 5477 5478 5477 5478 5479 5479 5479 5479 5480 5481 5481 5479 5476 5476 5476 5477 5477 5477 5475 5475 5476 5475 5475 5475 5475 5475 5475 5475 5474 5471 5471 5471 5469 5467 5467 5465 5464 5463 5461 5459 5458 5455 5454 5453 5451 5449 5447 5444 5441 5438 5435 5432
5471 5469 5466 5463 5461 5462 5461 5455 5452 5455 5462 5467 5470 5476 5482 5480 5471 5463 5461 5465 5466 5460 5461 5466 5465 5465 5465 5464 5463 5463 5463 5464 5464 5462 5463 5464 5464 5466 5468 5469 5469 5469 5471 5473 5472 5469 5466 5465 5466 5467 5467 5467 5465 5464 5465 5464 5463 5464 5464 5465 5466 5465 5464 5463 5462 5461 5460 5459 5458 5456 5455 5454 5453 5451 5449 5447 5446 5444 5443 5441 5439 5436 5433 5430 5427 5424
5459 5457 5455 5454 5453 5452 5451 5449 5446 5447 5452 5454 5455 5464 5470 5465 5457 5454 5451 5449 5449 5450 5452 5453 5454 5455 5453 5451 5453 5453 5452 5453 5454 5452 5453 5454 5454 5456 5458 5460 5461 5462 5462 5463 5462 5459 5457 5455 5456 5456 5456 5455 5455 5454 5454 5453 5453 5453 5454 5455 5456 5455 5454 5454 5453 5451 5451 5450 5448 5448 5446 5445 5444 5443 5441 5439 5437 5435 5434 5432 5430 5427 5424 5422 5419 5416
5450 5449 5443 5442 5444 5443 5439 5440 5441 5440 5443 5447 5445 5448 5454 5452 5447 5444 5439 5439 5442 5442 5439 5440 5443 5444 5442 5441 5442 5442 5442 5443 5443 5443 5445 5445 5445 5446 5447 5449 5451 5451 5451 5451 5450 5448 5447 5446 5446 5447 5446 5446 5445 5444 5443 5442 5443 5444 5445 5446 5446 5445 5445 5444 5443 5442 5442 5440 5439 5439 5437 5436 5434 5433 5432 5431 5428 5427 5425 5423 5421 5418 5415 5413 5411 5408
5437 5440 5432 5427 5431 5430 5424 5429 5436 5434 5435 5441 5440 5438 5439 5439 5435 5431 5426 5425 5427 5426 5427 5429 5430 5432 5433 5430 5428 5430 5432 5433 5433 5435 5436 5436 5436 5438 5438 5439 5440 5440 5440 5441 5439 5438 5438 5438 5438 5439 5439 5438 5437 5435 5434 5433 5433 5435 5436 5436 5436 5436 5434 5433 5432 5432 5432 5431 5430 5430 5429 5427 5425 5423 5423 5422 5419 5418 5416 5413 5412 5409 5406 5404 5402 5400
5419 5426 5424 5418 5417 5415 5413 5421 5430 5427 5427 5434 5435 5432 5429 5423 5417 5415 5412 5412 5414 5415 5417 5418 5417 5420 5422 5418 5417 5419 5420 5422 5423 5425 5426 5426 5428 5429 5428 5429 5430 5430 5430 5431 5430 5429 5429 5429 5429 5429 5429 5429 5428 5426 5425 5424 5424 5426 5427 5426 5426 5425 5424 5422 5421 5422 5422 5421 5421 5421 5420 5419 5417 5415 5414 5412 5411 5409 5407 5404 5402 5400 5398 5395 5393 5391
5406 5412 5411 5406 5401 5398 5401 5414 5421 5417 5418 5424 5424 5422 5418 5408 5401 5401 5401 5402 5405 5405 5407 5407 5407 5408 5409 5407 5406 5407 5409 5412 5413 5413 5415 5416 5416 5417 5419 5419 5419 5420 5420 5421 5421 5421 5420 5419 5419 5419 5419 5420 5419 5418 5416 5415 5415 5416 5416 5416 5416 5414 5412 5411 5410 5410 5411 5412 5412 5412 5411 5410 5408 5406 5404 5403 5402 5400 5398 5396 5393 5391 5388 5386 5384 5382
5393 5396 5393 5390 5389 5387 5388 5399 5407 5405 5408 5413 5410 5405 5401 5394 5391 5393 5393 5393 5395 5394 5394 5395 5395 5395 5395 5396 5396 5395 5397 5401 5402 5400 5402 5404 5404 5406 5407 5407 5408 5409 5409 5410 5411 5411 5410 5410 5410 5410 5409 5410 5410 5409 5407 5406 5406 5405 5404 5405 5404 5402 5400 5399 5398 5398 5399 5400 5401 5401 5401 5400 5399 5398 5395 5394 5392 5390 5389 5387 5384 5382 5379 5377 5375 5374
5374 5378 5379 5378 5376 5375 5378 5385 5389 5386 5389 5396 5396 5387 5379 5379 5383 5385 5384 5384 5383 5381 5380 5382 5383 5383 5383 5385 5385 5384 5383 5386 5388 5388 5388 5389 5391 5394 5395 5395 5396 5397 5399 5400 5399 5399 5399 5400 5400 5399 5399 5400 5400 5398 5397 5396 5395 5393 5394 5393 5392 5390 5389 5387 5387 5387 5388 5388 5389 5390 5390 5390 5389 5388 5386 5384 5382 5380 5379 5377 5374 5372 5370 5368 5366 5365
5357 5361 5368 5366 5359 5360 5368 5372 5369 5363 5365 5377 5382 5372 5364 5367 5372 5373 5372 5372 5370 5368 5367 5368 5370 5372 5372 5372 5373 5372 5371 5373 5375 5374 5373 5375 5377 5379 5380 5382 5383 5384 5387 5388 5387 5387 5388 5389 5389 5389 5388 5389 5390 5388 5387 5387 5384 5383 5383 5382 5381 5380 5378 5376 5376 5376 5376 5377 5378 5378 5379 5378 5378 5376 5375 5373 5372 5371 5369 5367 5365 5363 5361 5359 5357 5356
5346 5347 5352 5351 5345 5345 5349 5350 5349 5348 5350 5359 5365 5359 5353 5355 5356 5355 5357 5358 5356 5355 5355 5353 5354 5358 5359 5360 5360 5359 5357 5359 5361 5360 5360 5361 5363 5364 5366 5367 5368 5370 5373 5375 5374 5374 5376 5377 5377 5377 5378 5379 5378 5376 5376 5376 5374 5373 5373 5371 5370 5368 5366 5365 5365 5365 5365 5365 5366 5367 5367 5367 5366 5365 5363 5362 5361 5360 5359 5357 5355 5353 5352 5350 5348 5347